Date,TemperatureHighF,TemperatureAvgF,TemperatureLowF,DewpointHighF,DewpointAvgF,DewpointLowF,HumidityHigh,HumidityAvg,HumidityLow,PressureMaxIn,PressureMinIn,WindSpeedMaxMPH,WindSpeedAvgMPH,GustSpeedMaxMPH,PrecipitationSumIn
2013-1-1,27,17,7,17,12,3,91,82,64,30.74,30.48,12,2,14,0.00
2013-1-2,28,13,0,17,8,-3,90,81,61,30.77,30.65,10,2,12,0.00
2013-1-3,32,14,2,18,9,-1,90,80,55,30.71,30.60,6,1,7,0.00
2013-1-4,30,16,4,20,11,1,91,81,65,30.73,30.59,13,1,14,0.00
2013-1-5,31,19,6,21,14,3,92,81,65,30.65,30.36,10,2,11,0.00
2013-1-6,32,25,18,24,20,14,92,83,69,30.42,30.28,10,2,11,0.00
2013-1-7,38,24,10,26,19,7,92,81,60,30.56,30.42,10,1,13,0.00
2013-1-8,46,31,20,33,26,18,93,82,59,30.53,30.38,12,1,13,0.01
2013-1-9,58,35,20,34,26,18,95,74,33,30.40,29.80,27,5,34,0.02
2013-1-10,33,28,25,23,13,7,76,53,35,30.12,29.87,20,4,20,0.00
2013-1-11,31,25,18,20,13,5,90,62,35,30.29,30.12,13,3,16,0.00
2013-1-12,26,11,-4,14,4,-9,91,74,51,30.50,30.29,5,0,6,0.08
2013-1-13,24,11,-4,11,2,-10,81,69,48,30.66,30.50,11,2,13,0.01
2013-1-14,27,13,-1,11,5,-4,87,72,47,30.82,30.66,13,2,15,0.01
2013-1-15,35,20,7,19,12,3,86,70,48,30.94,30.82,9,2,10,0.00
2013-1-16,40,23,8,24,15,4,91,74,50,30.95,30.77,10,1,13,0.01
2013-1-17,36,22,8,23,16,6,90,76,55,30.82,30.66,10,2,11,0.00
2013-1-18,37,21,7,22,15,4,91,77,51,30.74,30.61,11,1,13,0.00
2013-1-19,38,22,7,22,15,4,92,74,47,30.78,30.63,8,1,11,0.00
2013-1-20,42,23,8,22,15,5,90,73,42,30.75,30.59,9,1,11,0.00
2013-1-21,43,29,12,23,18,9,92,67,40,30.66,30.49,6,1,7,0.00
2013-1-22,44,28,13,25,20,11,92,74,43,30.55,30.35,8,1,10,0.00
2013-1-23,57,38,25,29,24,18,90,60,23,30.39,30.17,16,2,18,0.00
2013-1-24,42,38,34,37,33,26,95,82,58,30.32,30.19,9,2,10,0.10
2013-1-25,50,37,32,42,35,31,96,92,71,30.32,30.12,6,1,6,0.01
2013-1-26,53,40,29,40,29,22,96,69,33,30.12,29.85,19,5,25,0.01
2013-1-27,40,32,22,25,20,9,83,62,34,30.19,29.87,20,5,21,0.00
2013-1-28,38,29,19,25,19,14,85,66,47,30.34,30.19,11,2,12,0.00
2013-1-29,51,40,33,32,29,25,79,64,45,30.48,30.30,16,3,18,0.00
2013-1-30,55,39,27,34,28,25,93,69,35,30.50,30.39,8,1,10,0.00
2013-1-31,60,38,24,36,28,21,94,69,27,30.49,30.27,9,1,9,0.00
2013-2-1,54,37,24,33,27,21,91,70,42,30.45,30.31,12,1,12,0.00
2013-2-2,46,34,26,33,28,24,93,80,57,30.49,30.38,5,0,5,0.00
2013-2-3,56,36,22,36,26,20,94,69,26,30.42,30.27,14,2,15,0.01
2013-2-4,60,39,24,29,25,21,91,63,26,30.34,30.12,8,1,9,0.00
2013-2-5,59,43,28,30,22,10,88,51,15,30.16,29.94,25,4,25,0.00
2013-2-6,54,36,21,22,17,0,84,51,13,30.20,30.09,8,1,13,0.00
2013-2-7,48,36,22,27,14,-9,84,46,9,30.12,29.92,25,6,29,0.00
2013-2-8,36,29,20,22,18,15,87,66,49,30.09,29.92,17,4,20,0.00
2013-2-9,39,29,17,17,16,13,85,59,36,30.25,30.09,15,2,15,0.00
2013-2-10,41,28,17,22,16,13,88,63,37,30.31,30.20,16,2,16,0.00
2013-2-11,46,29,14,19,14,11,88,59,26,30.46,30.31,8,1,10,0.00
2013-2-12,52,34,17,23,19,13,88,59,29,30.54,30.41,9,1,9,0.00
2013-2-13,54,36,19,26,22,17,90,62,32,30.53,30.36,9,1,10,0.00
2013-2-14,52,36,21,31,25,18,92,66,41,30.56,30.42,18,2,19,0.00
2013-2-15,55,37,21,30,25,18,92,65,33,30.61,30.43,10,2,12,0.00
2013-2-16,52,37,20,29,22,17,92,60,30,30.49,30.15,10,1,14,0.00
2013-2-17,54,39,23,28,20,10,74,47,35,30.15,30.00,14,4,16,0.00
2013-2-18,56,36,20,23,18,11,85,51,19,30.12,29.85,21,3,21,0.00
2013-2-19,43,36,29,30,19,8,77,50,25,29.85,29.55,27,7,28,0.00
2013-2-20,43,34,26,23,17,7,79,53,23,30.06,29.73,13,4,15,0.00
2013-2-21,46,33,24,23,15,5,81,51,21,30.27,30.02,15,2,16,0.00
2013-2-22,56,39,20,28,19,14,78,48,21,30.37,30.12,31,4,35,0.00
2013-2-23,46,36,22,29,18,8,71,48,28,30.32,29.92,30,7,31,0.00
2013-2-24,44,29,12,16,12,7,87,53,27,30.51,30.32,9,1,9,0.00
2013-2-25,54,36,19,23,14,9,77,45,17,30.42,30.16,29,5,32,0.00
2013-2-26,46,34,24,16,12,2,62,41,19,30.40,30.27,14,3,14,0.00
2013-2-27,57,36,14,16,12,8,84,44,16,30.54,30.38,14,2,16,0.00
2013-2-28,62,45,27,32,24,15,70,47,26,30.53,30.39,10,2,12,0.00
2013-3-1,65,46,25,32,28,22,89,55,26,30.56,30.32,10,2,12,0.00
2013-3-2,68,48,30,32,26,20,83,48,18,30.40,30.06,19,4,23,0.00
2013-3-3,52,44,35,40,37,28,93,77,39,30.07,29.95,17,3,19,0.07
2013-3-4,58,43,30,38,34,28,95,73,40,30.18,30.03,12,2,12,0.01
2013-3-5,59,44,26,34,26,21,93,56,25,30.05,29.72,28,6,32,0.00
2013-3-6,46,38,29,32,24,17,93,59,36,29.99,29.72,30,9,35,0.04
2013-3-7,43,35,30,31,26,20,93,71,51,30.03,29.91,9,2,11,0.00
2013-3-8,45,37,31,32,28,23,94,74,44,30.06,29.88,10,1,10,0.00
2013-3-9,52,38,26,29,18,2,91,50,14,30.50,30.06,17,3,19,0.00
2013-3-10,58,39,18,22,14,8,82,42,15,30.58,30.40,9,2,11,0.00
2013-3-11,66,44,23,24,17,9,79,40,14,30.46,30.19,10,2,13,0.00
2013-3-12,70,48,25,27,22,17,79,41,14,30.29,30.13,9,1,11,0.00
2013-3-13,75,53,31,34,26,9,81,42,8,30.27,30.09,13,2,14,0.00
2013-3-14,74,53,37,35,31,24,76,47,16,30.17,30.06,20,2,24,0.00
2013-3-15,70,51,31,32,26,16,80,44,14,30.16,30.00,22,3,24,0.00
2013-3-16,66,50,32,30,24,12,76,40,13,30.07,29.89,30,4,32,0.00
2013-3-17,63,52,41,30,22,10,48,33,14,30.03,29.93,27,5,27,0.00
2013-3-18,62,47,25,27,20,11,73,40,15,30.12,29.99,22,4,22,0.00
2013-3-19,61,52,43,36,31,21,67,47,32,30.10,29.94,20,5,21,0.00
2013-3-20,57,50,46,39,34,31,73,55,42,29.96,29.78,41,12,48,0.00
2013-3-21,58,48,37,31,24,10,64,40,18,30.04,29.90,24,5,26,0.00
2013-3-22,53,38,24,15,10,-3,58,33,13,30.19,30.01,16,4,18,0.00
2013-3-23,54,39,27,14,10,7,44,31,19,30.31,30.09,15,4,16,0.00
2013-3-24,65,46,23,30,19,8,70,36,21,30.25,29.98,18,3,19,0.00
2013-3-25,66,49,27,30,18,0,70,35,7,30.03,29.85,18,4,22,0.00
2013-3-26,59,52,44,35,29,18,62,41,29,29.91,29.80,22,7,25,0.00
2013-3-27,62,48,30,37,32,26,87,56,29,29.97,29.86,24,4,26,0.00
2013-3-28,61,50,39,40,34,27,85,58,28,30.12,29.95,28,3,29,0.00
2013-3-29,69,50,30,39,32,28,94,57,22,30.22,30.06,11,1,15,0.00
2013-3-30,69,53,34,39,33,28,82,51,23,30.14,29.89,15,3,16,0.00
2013-3-31,56,49,39,43,35,29,89,59,37,29.97,29.86,22,5,25,0.13
2013-4-1,57,47,39,38,33,29,85,60,34,30.13,29.97,22,6,23,0.00
2013-4-2,67,48,29,36,30,24,91,57,22,30.22,30.05,11,2,14,0.00
2013-4-3,72,53,33,40,32,21,84,51,15,30.18,29.96,16,3,20,0.00
2013-4-4,62,52,42,40,34,27,76,52,32,30.00,29.86,27,7,32,0.00
2013-4-5,59,51,41,37,29,20,68,44,25,30.05,29.98,22,5,26,0.00
2013-4-6,59,52,45,34,30,20,54,43,31,30.08,29.98,24,5,26,0.00
2013-4-7,60,51,36,34,29,23,84,44,27,30.04,29.56,34,10,36,0.01
2013-4-8,46,38,31,33,26,18,90,63,33,30.10,29.54,27,8,31,0.03
2013-4-9,55,44,28,23,19,12,70,40,19,30.30,30.10,23,5,24,0.00
2013-4-10,73,52,28,37,27,18,73,43,18,30.39,29.99,17,3,23,0.00
2013-4-11,64,54,45,42,34,22,84,51,24,29.99,29.81,20,5,23,0.00
2013-4-12,71,52,29,39,28,22,83,44,16,30.03,29.77,20,4,25,0.00
2013-4-13,66,58,47,36,30,20,57,35,23,29.84,29.62,27,7,28,0.00
2013-4-14,62,52,40,35,26,16,55,39,24,29.74,29.57,33,8,36,0.00
2013-4-15,49,42,33,35,28,16,86,61,35,29.85,29.59,25,7,29,0.01
2013-4-16,42,35,31,29,22,16,89,61,36,30.25,29.85,24,7,24,0.00
2013-4-17,49,38,29,23,14,9,67,41,21,30.41,30.25,19,4,21,0.00
2013-4-18,62,43,21,22,16,10,77,37,17,30.48,30.31,13,2,16,0.00
2013-4-19,68,51,31,34,27,20,70,42,22,30.38,30.04,25,5,28,0.00
2013-4-20,70,55,35,32,26,14,74,37,15,30.17,29.96,11,3,13,0.00
2013-4-21,76,57,33,42,29,22,69,38,17,30.12,29.92,20,2,20,0.00
2013-4-22,72,58,40,37,27,9,79,34,14,30.10,29.85,21,5,22,0.00
2013-4-23,64,50,36,16,8,1,31,19,10,30.17,29.92,14,4,18,0.00
2013-4-24,65,50,28,20,11,4,63,26,9,30.14,29.93,21,4,22,0.00
2013-4-25,74,54,30,28,20,10,60,29,10,30.08,29.93,21,3,23,0.00
2013-4-26,78,59,36,37,28,15,72,37,10,30.21,30.06,10,2,13,0.00
2013-4-27,80,63,41,38,32,22,74,37,14,30.21,29.99,26,5,26,0.00
2013-4-28,81,62,40,40,32,20,69,37,11,30.05,29.83,15,3,18,0.00
2013-4-29,79,64,42,40,35,30,77,37,18,29.91,29.67,24,4,32,0.00
2013-4-30,71,58,49,37,21,-11,47,26,7,30.06,29.70,22,7,22,0.00
2013-5-1,63,51,39,10,2,-6,22,14,7,30.42,30.05,20,6,21,0.00
2013-5-2,74,55,29,21,6,-2,50,18,6,30.49,30.18,12,2,13,0.00
2013-5-3,79,61,37,29,20,7,63,26,8,30.19,29.85,17,3,19,0.00
2013-5-4,68,55,37,34,27,18,63,36,20,29.90,29.60,24,4,24,0.00
2013-5-5,64,52,41,46,40,31,90,66,39,29.77,29.66,16,2,17,0.17
2013-5-6,56,50,44,46,41,38,90,74,54,29.90,29.74,30,5,30,0.44
2013-5-7,58,48,43,46,41,37,92,78,51,30.01,29.90,16,3,19,0.20
2013-5-8,68,56,45,49,42,33,92,65,29,30.06,29.94,10,2,10,0.04
2013-5-9,74,61,44,47,42,33,89,54,26,30.09,29.94,14,2,15,0.00
2013-5-10,80,65,45,47,40,31,86,46,19,30.14,30.01,13,2,18,0.01
2013-5-11,86,67,45,44,38,23,83,42,12,30.15,29.98,19,3,22,0.00
2013-5-12,82,69,49,48,39,31,77,39,16,30.10,29.93,23,5,27,0.00
2013-5-13,82,68,49,45,36,29,72,35,16,29.99,29.86,25,5,27,0.00
2013-5-14,82,65,45,44,38,29,75,40,17,29.90,29.78,22,4,25,0.00
2013-5-15,75,64,45,43,29,12,79,32,10,29.89,29.81,22,6,25,0.00
2013-5-16,63,54,45,40,36,30,65,51,40,29.87,29.78,22,5,22,0.00
2013-5-17,65,55,40,38,33,24,82,47,25,29.99,29.84,23,5,28,0.00
2013-5-18,68,55,35,35,31,26,78,43,22,30.08,29.98,20,4,29,0.00
2013-5-19,70,57,47,37,31,19,66,40,18,30.14,30.01,14,4,17,0.00
2013-5-20,78,60,36,34,28,21,72,33,13,30.16,29.89,15,2,16,0.00
2013-5-21,73,61,44,35,28,14,69,33,12,29.89,29.63,34,6,34,0.00
2013-5-22,61,51,39,26,18,6,53,29,11,29.79,29.65,25,7,29,0.00
2013-5-23,60,48,30,26,20,9,69,37,15,30.00,29.79,19,3,20,0.00
2013-5-24,73,54,30,30,22,1,76,36,6,29.99,29.83,25,5,25,0.00
2013-5-25,70,58,41,36,28,16,61,34,14,29.88,29.77,23,5,24,0.00
2013-5-26,68,58,44,36,29,23,56,34,23,29.98,29.86,22,5,27,0.00
2013-5-27,67,52,36,44,36,27,77,57,22,29.98,29.86,20,4,25,0.00
2013-5-28,67,58,49,46,40,35,85,53,33,29.87,29.79,19,6,22,0.03
2013-5-29,68,60,52,43,37,28,65,44,29,29.82,29.72,24,8,29,0.00
2013-5-30,75,60,38,40,32,8,86,41,8,29.95,29.82,18,4,21,0.00
2013-5-31,79,62,40,36,25,9,70,30,8,30.07,29.95,14,2,16,0.00
2013-6-1,87,67,41,40,30,20,65,30,10,30.03,29.75,15,2,19,0.00
2013-6-2,85,70,48,44,38,29,70,36,14,29.78,29.56,23,4,23,0.00
2013-6-3,86,70,47,39,32,24,67,29,12,29.79,29.66,11,3,13,0.00
2013-6-4,90,71,47,45,34,20,62,30,8,29.84,29.71,12,2,15,0.00
2013-6-5,90,72,48,44,35,19,70,32,9,29.91,29.75,11,2,14,0.00
2013-6-6,96,76,52,46,38,17,70,33,6,29.84,29.68,25,2,28,0.00
2013-6-7,96,78,53,45,35,17,66,28,7,29.84,29.67,15,2,20,0.00
2013-6-8,96,79,56,47,39,32,50,26,12,29.80,29.64,13,3,16,0.00
2013-6-9,94,75,56,48,42,30,67,36,12,29.72,29.56,26,2,34,0.01
2013-6-10,81,66,57,55,46,32,80,53,22,29.76,29.53,30,5,35,0.12
2013-6-11,80,69,54,47,38,27,64,35,17,29.80,29.75,24,6,26,0.00
2013-6-12,81,69,50,42,32,13,65,29,11,29.79,29.69,33,7,33,0.00
2013-6-13,74,62,42,28,17,-10,50,21,4,30.00,29.78,23,5,24,0.00
2013-6-14,76,62,47,32,27,23,49,28,15,30.04,29.81,16,4,16,0.00
2013-6-15,81,65,42,35,28,17,62,29,10,29.88,29.75,21,4,22,0.00
2013-6-16,81,66,44,36,31,16,67,32,10,29.96,29.87,19,4,21,0.00
2013-6-17,81,66,43,37,31,20,67,32,11,29.99,29.82,23,5,26,0.00
2013-6-18,76,64,46,33,26,19,46,25,14,29.83,29.65,25,6,31,0.00
2013-6-19,68,58,46,31,21,10,39,24,11,29.92,29.72,22,6,26,0.00
2013-6-20,72,58,37,33,29,22,72,36,16,29.98,29.85,21,4,22,0.00
2013-6-21,76,63,46,38,32,26,63,35,16,29.99,29.82,16,3,19,0.00
2013-6-22,81,66,42,37,33,27,67,32,16,29.95,29.73,16,3,20,0.00
2013-6-23,74,63,46,42,37,31,68,40,21,29.76,29.61,26,5,27,0.00
2013-6-24,66,59,48,49,42,33,75,54,43,29.79,29.62,22,6,27,0.00
2013-6-25,72,64,56,51,49,46,77,58,43,29.89,29.78,29,6,33,0.00
2013-6-26,84,72,53,52,48,42,77,46,24,29.93,29.86,20,4,21,0.00
2013-6-27,94,77,52,51,46,41,78,39,17,30.00,29.87,16,3,18,0.00
2013-6-28,101,79,59,54,47,35,70,38,12,29.97,29.75,25,3,28,0.00
2013-6-29,97,80,61,56,46,29,72,37,10,29.86,29.72,15,3,18,0.00
2013-6-30,100,81,59,51,46,37,60,33,12,29.79,29.63,19,3,19,0.00
2013-7-1,100,80,63,52,46,31,63,34,10,29.85,29.70,22,3,28,0.00
2013-7-2,102,80,64,56,50,37,66,39,12,29.91,29.73,23,3,25,0.01
2013-7-3,97,78,57,55,50,36,82,43,15,29.92,29.70,13,2,16,0.00
2013-7-4,95,80,60,55,52,49,67,40,23,29.77,29.56,18,3,19,0.00
2013-7-5,93,78,57,57,38,14,78,32,7,29.60,29.50,23,4,24,0.00
2013-7-6,91,74,49,42,34,26,55,27,11,29.65,29.55,23,4,25,0.00
2013-7-7,92,77,54,43,36,27,59,27,11,29.71,29.59,21,4,26,0.00
2013-7-8,91,76,57,42,34,24,43,24,9,29.87,29.71,18,4,22,0.00
2013-7-9,88,75,52,42,34,30,53,25,14,29.95,29.84,19,4,23,0.00
2013-7-10,90,75,51,40,36,29,58,27,12,29.94,29.78,24,4,24,0.00
2013-7-11,86,76,66,45,37,26,43,25,13,29.79,29.66,22,5,26,0.00
2013-7-12,87,71,47,41,33,20,63,28,10,29.82,29.71,23,5,25,0.00
2013-7-13,87,72,47,42,33,14,60,28,7,29.88,29.77,18,4,21,0.00
2013-7-14,92,74,51,44,38,31,63,31,13,29.93,29.75,16,3,22,0.00
2013-7-15,92,75,53,45,41,33,61,33,14,29.80,29.57,23,4,23,0.00
2013-7-16,86,75,58,44,37,24,57,28,15,29.82,29.65,24,6,31,0.00
2013-7-17,93,73,47,39,32,9,63,27,7,29.98,29.82,15,2,17,0.00
2013-7-18,98,76,51,43,35,10,62,28,5,29.97,29.73,18,2,20,0.00
2013-7-19,101,80,56,47,37,21,57,27,6,29.84,29.63,19,3,21,0.00
2013-7-20,102,82,59,48,38,21,49,25,6,29.73,29.56,21,2,23,0.00
2013-7-21,102,83,61,50,42,17,56,29,6,29.68,29.54,17,3,19,0.00
2013-7-22,99,82,63,53,45,28,51,30,10,29.77,29.58,25,5,31,0.00
2013-7-23,86,77,65,54,48,39,61,38,20,29.83,29.73,16,3,21,0.00
2013-7-24,91,77,60,53,49,43,67,39,21,29.86,29.74,20,4,23,0.00
2013-7-25,93,73,59,58,52,43,79,52,22,29.97,29.77,29,2,33,0.00
2013-7-26,92,76,57,59,52,44,92,50,20,30.00,29.86,20,4,23,0.00
2013-7-27,92,77,57,51,47,34,73,39,13,29.91,29.66,21,4,22,0.00
2013-7-28,88,76,55,47,42,34,68,34,16,29.75,29.60,22,4,27,0.00
2013-7-29,87,73,52,46,38,26,67,32,11,29.87,29.69,25,4,26,0.00
2013-7-30,86,73,51,47,40,34,67,34,16,29.97,29.85,23,4,23,0.00
2013-7-31,85,75,60,45,39,34,54,29,19,29.92,29.75,27,5,28,0.00
2013-8-1,80,69,55,41,28,14,51,25,9,29.86,29.80,20,5,24,0.00
2013-8-2,84,66,42,36,26,9,58,26,6,29.94,29.79,18,3,20,0.00
2013-8-3,88,71,48,43,35,24,62,31,11,29.90,29.74,15,4,19,0.00
2013-8-4,91,73,51,42,37,26,65,32,10,29.89,29.73,27,4,27,0.00
2013-8-5,91,74,50,41,34,20,61,27,8,29.89,29.74,19,3,19,0.00
2013-8-6,94,73,50,44,34,17,60,29,8,29.88,29.71,28,4,28,0.00
2013-8-7,82,74,65,42,37,29,38,27,16,29.83,29.73,22,6,28,0.00
2013-8-8,83,68,49,45,36,19,59,34,12,29.83,29.70,22,4,26,0.00
2013-8-9,82,68,52,46,40,28,72,40,15,29.83,29.70,22,4,24,0.00
2013-8-10,82,67,45,42,34,20,62,32,12,29.91,29.81,20,4,25,0.00
2013-8-11,86,69,47,42,37,29,72,34,14,29.94,29.77,17,3,20,0.00
2013-8-12,86,69,46,41,37,28,74,36,13,29.91,29.78,20,3,25,0.00
2013-8-13,91,71,47,38,33,16,65,31,8,29.97,29.80,16,3,21,0.00
2013-8-14,93,72,46,36,30,14,66,27,6,29.93,29.76,17,3,24,0.00
2013-8-15,90,72,48,36,28,9,60,26,5,29.89,29.77,20,4,23,0.00
2013-8-16,89,73,50,35,28,19,48,21,8,29.94,29.81,26,4,26,0.00
2013-8-17,93,74,51,48,39,31,56,32,16,29.92,29.71,17,2,19,0.00
2013-8-18,96,75,53,48,41,30,72,36,11,29.88,29.73,21,2,25,0.00
2013-8-19,87,75,63,50,46,42,55,37,22,29.87,29.75,14,3,18,0.00
2013-8-20,93,74,57,53,46,38,69,42,16,29.85,29.67,24,3,26,0.00
2013-8-21,86,70,55,58,52,46,81,55,25,29.89,29.76,17,2,17,0.00
2013-8-22,85,69,50,54,44,33,91,48,17,29.90,29.75,18,3,21,0.00
2013-8-23,84,67,48,42,38,29,67,38,15,29.84,29.68,18,3,21,0.00
2013-8-24,82,65,45,41,36,24,76,40,12,29.81,29.68,18,4,21,0.00
2013-8-25,79,65,46,42,39,35,67,41,22,29.86,29.77,19,4,23,0.00
2013-8-26,84,67,46,45,40,29,77,42,14,29.93,29.79,22,4,27,0.00
2013-8-27,86,67,48,47,42,38,72,45,23,29.88,29.70,20,3,24,0.00
2013-8-28,84,69,52,52,46,44,77,47,27,29.85,29.74,20,2,20,0.00
2013-8-29,88,71,52,48,41,30,72,38,13,29.95,29.85,19,4,31,0.00
2013-8-30,91,72,49,43,38,29,70,34,12,30.01,29.83,18,3,21,0.00
2013-8-31,91,73,51,45,41,36,69,35,16,29.91,29.74,20,3,22,0.00
2013-9-1,86,73,59,50,45,30,55,38,21,29.81,29.68,16,3,19,0.00
2013-9-2,85,73,63,58,51,45,78,49,26,29.78,29.68,19,4,20,0.00
2013-9-3,86,73,60,54,50,45,73,47,26,29.83,29.73,20,4,22,0.00
2013-9-4,88,72,54,51,48,44,73,45,22,29.89,29.73,21,3,23,0.00
2013-9-5,83,71,56,48,40,31,62,36,17,29.83,29.73,30,6,35,0.00
2013-9-6,86,71,55,43,39,34,62,33,19,29.92,29.76,13,4,14,0.00
2013-9-7,88,68,46,43,38,30,72,38,14,29.91,29.76,15,2,17,0.00
2013-9-8,88,68,45,42,36,26,73,37,11,29.91,29.73,18,2,18,0.00
2013-9-9,86,68,47,39,35,32,63,34,16,29.89,29.70,13,2,14,0.00
2013-9-10,86,67,46,39,34,23,65,34,10,29.86,29.71,12,1,13,0.00
2013-9-11,87,68,50,42,37,30,62,36,14,29.91,29.79,11,2,14,0.00
2013-9-12,84,68,50,53,45,39,72,47,27,29.88,29.74,23,2,24,0.00
2013-9-13,86,67,51,54,49,41,90,59,22,29.86,29.70,16,2,21,0.00
2013-9-14,87,69,50,49,46,40,82,48,21,29.78,29.62,14,2,18,0.00
2013-9-15,86,70,51,48,41,32,78,40,15,29.72,29.61,20,4,24,0.00
2013-9-16,86,71,50,45,37,31,55,31,16,29.76,29.60,20,5,24,0.00
2013-9-17,75,66,53,37,32,15,51,29,11,29.79,29.53,24,6,29,0.00
2013-9-18,71,56,39,39,34,27,78,46,22,29.97,29.79,12,3,15,0.00
2013-9-19,78,58,35,33,28,23,76,38,13,30.05,29.82,13,2,14,0.00
2013-9-20,81,61,38,32,28,17,68,34,11,29.86,29.63,24,6,28,0.00
2013-9-21,67,56,45,41,34,20,75,47,21,29.75,29.54,27,6,29,0.00
2013-9-22,66,52,34,41,36,29,90,59,26,30.00,29.75,20,2,20,0.00
2013-9-23,79,57,36,41,33,16,90,49,10,30.07,29.89,15,2,19,0.00
2013-9-24,73,60,39,35,28,21,57,31,17,29.92,29.66,28,7,32,0.00
2013-9-25,59,50,42,34,28,18,74,46,22,29.83,29.62,29,6,29,0.00
2013-9-26,53,44,36,33,28,24,78,55,36,30.11,29.82,15,4,17,0.00
2013-9-27,63,46,26,30,24,19,84,48,20,30.25,30.11,9,2,11,0.00
2013-9-28,74,54,32,36,29,22,73,42,22,30.19,30.00,22,3,28,0.00
2013-9-29,73,64,57,33,30,25,37,28,20,30.03,29.84,25,8,32,0.00
2013-9-30,71,62,49,41,36,24,67,39,23,29.91,29.82,22,5,23,0.00
2013-10-1,74,58,40,40,33,22,83,44,14,29.90,29.83,19,3,22,0.00
2013-10-2,69,55,37,34,27,12,73,38,11,29.93,29.83,18,3,34,0.00
2013-10-3,55,47,38,28,21,14,59,38,21,30.25,29.89,17,5,19,0.00
2013-10-4,57,45,34,26,21,17,61,39,21,30.43,30.25,19,4,21,0.00
2013-10-5,66,45,24,21,18,14,71,38,15,30.54,30.35,9,2,12,0.00
2013-10-6,76,51,26,22,17,11,68,33,9,30.39,30.09,11,2,12,0.00
2013-10-7,74,56,35,24,19,6,53,28,8,30.11,29.86,16,4,20,0.00
2013-10-8,65,55,45,29,24,16,46,31,21,29.90,29.60,13,3,17,0.00
2013-10-9,50,47,41,38,32,24,80,57,36,29.78,29.54,19,5,19,0.01
2013-10-10,66,48,31,38,32,27,87,57,27,29.99,29.78,15,3,19,0.00
2013-10-11,68,50,29,36,31,25,87,53,20,30.11,29.93,15,2,15,0.00
2013-10-12,65,49,30,33,29,21,86,52,19,30.02,29.81,23,3,27,0.00
2013-10-13,58,46,36,38,34,28,82,63,37,30.21,29.90,14,4,16,0.02
2013-10-14,59,42,26,34,28,23,90,61,33,30.34,30.20,12,2,15,0.00
2013-10-15,57,41,25,28,22,17,85,52,24,30.32,30.23,17,3,19,0.00
2013-10-16,70,45,22,27,21,16,79,45,17,30.33,30.14,9,1,11,0.00
2013-10-17,69,49,29,29,23,17,75,41,14,30.22,30.06,18,2,18,0.00
2013-10-18,68,48,27,25,21,17,74,40,17,30.28,30.12,10,2,12,0.00
2013-10-19,73,50,27,26,22,18,73,39,15,30.27,30.09,10,2,13,0.00
2013-10-20,75,51,29,27,21,16,71,37,12,30.18,29.99,9,1,10,0.00
2013-10-21,71,50,29,24,21,17,70,36,15,30.19,30.04,11,2,12,0.00
2013-10-22,73,51,30,26,22,19,69,37,14,30.21,30.01,13,1,15,0.00
2013-10-23,73,51,29,26,22,19,69,37,14,30.14,29.96,12,2,13,0.00
2013-10-24,74,51,28,24,20,15,68,35,11,30.16,30.00,10,1,11,0.00
2013-10-25,73,51,29,24,17,8,68,33,8,30.26,30.13,8,1,10,0.00
2013-10-26,71,49,27,21,18,15,63,33,12,30.32,30.13,10,2,11,0.00
2013-10-27,69,49,29,34,21,16,78,38,15,30.16,29.43,32,6,34,0.03
2013-10-28,43,38,33,38,32,28,94,80,57,29.83,29.47,24,4,25,0.50
2013-10-29,43,40,37,35,33,30,88,77,63,30.12,29.83,16,3,16,0.00
2013-10-30,52,40,29,36,32,26,91,74,50,30.28,30.11,11,2,11,0.00
2013-10-31,58,41,26,36,31,24,93,70,39,30.38,30.25,12,2,12,0.00
2013-11-1,61,42,26,35,31,24,92,67,37,30.41,30.17,12,2,12,0.00
2013-11-2,67,46,26,35,28,20,91,57,18,30.18,29.89,17,3,22,0.00
2013-11-3,53,42,36,34,23,14,63,48,33,30.02,29.90,19,6,27,0.00
2013-11-4,48,38,26,20,18,15,66,45,30,30.29,30.01,11,2,12,0.00
2013-11-5,54,36,18,21,17,14,82,51,22,30.46,30.29,10,2,12,0.00
2013-11-6,60,41,23,25,22,17,79,50,23,30.53,30.34,13,2,14,0.00
2013-11-7,68,48,34,29,22,13,71,43,13,30.37,30.11,22,2,23,0.00
2013-11-8,68,50,32,31,24,18,63,38,16,30.13,29.93,20,3,20,0.00
2013-11-9,65,44,25,30,25,19,79,50,23,30.19,30.04,10,2,11,0.00
2013-11-10,66,44,25,29,23,20,82,50,18,30.27,30.13,9,1,10,0.00
2013-11-11,65,44,26,24,21,18,74,44,19,30.34,30.21,10,1,11,0.00
2013-11-12,62,48,36,27,23,19,60,40,21,30.41,30.29,12,2,14,0.00
2013-11-13,66,46,27,30,25,20,75,48,20,30.40,30.26,12,2,13,0.00
2013-11-14,67,45,25,31,26,20,85,52,17,30.28,29.83,20,2,25,0.00
2013-11-15,49,40,32,32,29,25,77,65,48,29.87,29.74,18,3,24,0.00
2013-11-16,55,47,30,32,27,21,81,49,31,29.90,29.71,24,5,24,0.00
2013-11-17,60,41,24,30,25,20,88,58,28,30.16,29.89,9,2,10,0.00
2013-11-18,60,43,24,33,26,18,82,55,32,30.17,30.01,22,2,23,0.00
2013-11-19,55,50,45,41,35,29,86,57,45,30.03,29.86,17,4,19,0.00
2013-11-20,52,45,35,42,38,33,90,78,55,29.91,29.78,18,3,19,0.10
2013-11-21,36,32,28,33,27,18,92,82,67,30.44,29.91,16,5,18,0.02
2013-11-22,41,28,17,21,16,10,88,64,32,30.57,30.40,11,2,13,0.00
2013-11-23,46,29,16,22,15,6,89,60,21,30.45,30.31,14,1,14,0.00
2013-11-24,50,30,15,23,16,11,89,61,23,30.51,30.37,6,1,7,0.00
2013-11-25,50,32,16,26,20,13,89,65,30,30.60,30.48,9,2,11,0.00
2013-11-26,50,33,18,28,23,16,91,69,35,30.53,30.30,8,1,10,0.00
2013-11-27,52,36,24,31,26,20,89,70,39,30.30,30.07,9,1,10,0.00
2013-11-28,50,35,26,32,27,22,89,74,47,30.30,30.11,9,1,10,0.00
2013-11-29,52,34,20,32,26,18,92,74,44,30.44,30.29,8,1,9,0.00
2013-11-30,55,34,20,30,24,17,92,70,32,30.51,30.35,9,1,11,0.00
2013-12-1,59,36,19,28,23,16,90,63,28,30.57,30.42,7,2,8,0.00
2013-12-2,62,47,27,36,23,13,76,44,15,30.42,29.78,30,6,38,0.00
2013-12-3,49,29,8,38,23,5,91,81,59,30.00,29.59,27,6,31,0.05
2013-12-4,24,15,5,18,10,1,89,80,68,30.34,30.00,12,2,15,0.00
2013-12-5,28,19,10,15,12,6,88,74,56,30.34,30.22,7,2,11,0.00
2013-12-6,31,21,6,24,13,3,91,72,47,30.32,29.92,20,4,23,0.00
2013-12-7,30,24,15,26,15,9,92,67,45,30.31,29.86,22,6,24,0.00
2013-12-8,21,10,-3,11,5,-7,87,78,62,30.75,30.30,6,1,7,0.00
2013-12-9,21,4,-10,11,-1,-14,88,80,61,30.99,30.75,15,2,15,0.00
2013-12-10,29,11,-7,14,3,-14,87,71,49,30.96,30.71,8,1,9,0.01
2013-12-11,27,13,-3,16,6,-8,89,75,56,30.79,30.69,10,1,12,0.00
2013-12-12,32,14,-2,19,8,-5,89,79,57,30.75,30.56,9,1,11,0.00
2013-12-13,43,22,4,23,14,1,89,75,40,30.77,30.58,9,2,9,0.00
2013-12-14,41,21,5,24,15,2,90,77,48,30.87,30.74,6,1,7,0.00
2013-12-15,40,21,6,26,16,3,92,81,55,30.84,30.67,10,1,12,0.00
2013-12-16,41,24,9,27,18,6,92,79,53,30.79,30.64,9,1,9,0.00
2013-12-17,38,24,12,27,20,9,92,83,63,30.71,30.43,3,0,3,0.00
2013-12-18,54,36,19,32,25,16,92,68,36,30.43,29.78,17,2,19,0.00
2013-12-19,44,31,19,31,25,14,93,78,48,30.16,29.75,15,3,19,0.02
2013-12-20,34,21,8,21,15,4,90,78,54,30.35,30.15,8,1,10,0.00
2013-12-21,49,30,16,33,24,13,92,78,53,30.38,30.22,7,1,10,0.02
2013-12-22,52,33,21,34,26,19,93,79,45,30.58,30.37,6,1,7,0.00
2013-12-23,52,33,21,35,27,18,93,81,48,30.63,30.51,6,1,6,0.01
2013-12-24,50,34,20,35,28,18,93,79,48,30.65,30.53,12,2,13,0.00
2013-12-25,46,30,18,34,26,16,94,85,62,30.69,30.54,7,1,7,0.00
2013-12-26,46,28,16,32,23,14,93,83,57,30.68,30.55,10,1,11,0.01
2013-12-27,42,27,15,27,21,13,92,80,52,30.61,30.37,5,0,6,0.00
2013-12-28,47,30,15,27,21,12,92,71,36,30.54,30.36,14,2,17,0.00
2013-12-29,44,28,15,27,21,12,90,77,49,30.58,30.46,6,1,6,0.00
2013-12-30,46,30,17,27,22,14,92,74,42,30.56,30.42,6,1,7,0.00
2013-12-31,51,36,26,29,25,21,88,69,34,30.45,30.32,9,1,10,0.00
2014-1-1,50,33,19,28,22,16,91,69,33,30.52,30.38,11,1,14,0.00
2014-1-2,51,33,19,28,23,17,91,70,38,30.47,30.31,9,1,9,0.00